Simultaneous Nadir Overpasses (SNOs) Predictions

Prediction of SNOs between FY3D and LANDSAT-8 Satellite Orbit:

Table of predicted SNOs for the next 14.0 days since TLE Epoch: 7/25/2020
Index Date (FY3D) Time (FY3D) Lat,Lon (FY3D) SZA (FY3D ) Date (LANDSAT-8) Time (LANDSAT-8) Lat,Lon (LANDSAT-8) SZA (LANDSAT-8 ) Distance(km) Time Diff (sec)
1 07/26/2020 08:30:29 70.58, 49.38 51.25 07/26/2020 08:30:53 70.56, 49.38 51.23 1.85 24
2 07/26/2020 09:21:11 -70.48,-143.15 128.84 07/26/2020 09:20:22 -70.50,-143.07 128.82 3.42 49
3 07/29/2020 00:46:52 70.57, 165.30 51.86 07/29/2020 00:47:23 70.55, 165.25 51.84 3.26 31
4 07/29/2020 01:37:34 -70.47, -27.22 128.23 07/29/2020 01:36:52 -70.49, -27.20 128.21 2.13 42
5 07/31/2020 17:03:14 70.56, -78.77 52.51 07/31/2020 17:03:51 70.59, -78.81 52.53 2.96 37
6 07/31/2020 17:53:56 -70.47, 88.70 127.59 07/31/2020 17:53:21 -70.48, 88.66 127.57 2.12 35
7 08/03/2020 09:19:38 70.61, 37.06 53.25 08/03/2020 09:20:20 70.63, 37.13 53.26 2.95 42
8 08/03/2020 10:10:20 -70.51,-155.46 126.85 08/03/2020 10:09:50 -70.52,-155.39 126.84 2.79 30
9 08/06/2020 01:36:01 70.61, 152.98 53.97 08/06/2020 01:36:50 70.61, 152.98 53.96 0.05 49
10 08/06/2020 02:26:43 -70.51, -39.54 126.13 08/06/2020 02:26:20 -70.51, -39.53 126.13 0.32 23
